| time (UTC) | temp F | wind direction | speed MPH | gust MPH | rain 1hr in | rain 24hr in | rain mn in | humidity % | barometer mb |
| 20260503224641 | 50 | 265 | 2.0 | 3.0 | 0.00 | 0.01 | 0.00 | 48 | 1007.6 |
| 20260503223641 | 50 | 296 | 3.0 | 6.0 | 0.00 | 0.01 | 0.00 | 47 | 1007.5 |
| 20260503222639 | 51 | 301 | 3.0 | 8.0 | 0.00 | 0.01 | 0.00 | 47 | 1007.3 |
| 20260503221640 | 51 | 136 | 2.0 | 7.0 | 0.00 | 0.01 | 0.00 | 47 | 1007.3 |
| 20260503220639 | 51 | 54 | 3.0 | 6.0 | 0.00 | 0.01 | 0.00 | 44 | 1007.1 |
| 20260503215639 | 51 | 310 | 3.0 | 8.0 | 0.00 | 0.01 | 0.00 | 45 | 1007.0 |
| 20260503214639 | 51 | 47 | 3.0 | 8.0 | 0.00 | 0.01 | 0.00 | 45 | 1007.0 |
| 20260503213640 | 52 | 284 | 3.0 | 8.0 | 0.00 | 0.01 | 0.00 | 45 | 1007.0 |
| 20260503212630 | 52 | 108 | 3.0 | 12.0 | 0.00 | 0.01 | 0.00 | 47 | 1006.7 |
| 20260503211629 | 52 | 321 | 3.0 | 9.0 | 0.00 | 0.02 | 0.00 | 48 | 1006.7 |
| 20260503210629 | 52 | 190 | 2.0 | 6.0 | 0.00 | 0.03 | 0.00 | 45 | 1006.5 |
| 20260503205629 | 52 | 279 | 3.0 | 8.0 | 0.00 | 0.03 | 0.00 | 49 | 1006.4 |
| 20260503204627 | 52 | 248 | 2.0 | 7.0 | 0.00 | 0.04 | 0.00 | 50 | 1006.4 |
| 20260503203627 | 52 | 287 | 2.0 | 5.0 | 0.00 | 0.05 | 0.00 | 48 | 1006.1 |
| 20260503202627 | 52 | 198 | 2.0 | 6.0 | 0.00 | 0.05 | 0.00 | 47 | 1006.0 |
| 20260503201627 | 53 | 54 | 3.0 | 8.0 | 0.00 | 0.05 | 0.00 | 46 | 1006.0 |
| 20260503200626 | 53 | 301 | 4.0 | 9.0 | 0.00 | 0.05 | 0.00 | 46 | 1005.9 |
| 20260503195627 | 53 | 291 | 2.0 | 6.0 | 0.00 | 0.05 | 0.00 | 46 | 1006.0 |
| 20260503194626 | 53 | 262 | 3.0 | 9.0 | 0.00 | 0.05 | 0.00 | 47 | 1006.0 |
| 20260503193626 | 53 | 311 | 3.0 | 8.0 | 0.00 | 0.05 | 0.00 | 49 | 1006.0 |
| 20260503192625 | 52 | 301 | 3.0 | 6.0 | 0.00 | 0.05 | 0.00 | 50 | 1006.0 |
| 20260503191624 | 52 | 103 | 3.0 | 6.0 | 0.00 | 0.05 | 0.00 | 52 | 1006.0 |
| 20260503190624 | 51 | 285 | 2.0 | 7.0 | 0.00 | 0.05 | 0.00 | 52 | 1006.0 |
| 20260503190103 | 51 | 100 | 2.0 | 10.0 | 0.00 | 0.05 | 0.00 | 55 | 1006.1 |
| 20260503184625 | 51 | 35 | 2.0 | 7.0 | 0.00 | 0.05 | 0.00 | 55 | 1006.1 |
| 20260503183625 | 52 | 28 | 2.0 | 7.0 | 0.00 | 0.05 | 0.00 | 55 | 1006.0 |
| 20260503182625 | 52 | 23 | 3.0 | 8.0 | 0.00 | 0.05 | 0.00 | 54 | 1006.0 |
| 20260503181625 | 52 | 356 | 3.0 | 11.0 | 0.00 | 0.05 | 0.00 | 53 | 1006.0 |
| 20260503180624 | 52 | 15 | 3.0 | 9.0 | 0.00 | 0.05 | 0.00 | 54 | 1006.0 |
| 20260503175626 | 51 | 2 | 3.0 | 10.0 | 0.00 | 0.05 | 0.00 | 55 | 1006.0 |
| 20260503174625 | 51 | 14 | 5.0 | 12.0 | 0.00 | 0.05 | 0.00 | 56 | 1006.0 |
| 20260503173624 | 50 | 340 | 3.0 | 8.0 | 0.00 | 0.05 | 0.00 | 58 | 1006.1 |
| 20260503172623 | 50 | 332 | 3.0 | 7.0 | 0.00 | 0.05 | 0.00 | 59 | 1006.4 |
| 20260503172107 | 50 | 143 | 3.0 | 8.0 | 0.00 | 0.05 | 0.00 | 59 | 1006.4 |
| 20260503170624 | 51 | 310 | 4.0 | 15.0 | 0.00 | 0.05 | 0.00 | 59 | 1006.0 |
| 20260503131014 | 43 | 18 | 3.0 | 7.0 | 0.00 | 0.05 | 0.00 | 84 | 1006.9 |
| 20260503110534 | 38 | 85 | 0.0 | 2.0 | 0.00 | 0.22 | 0.00 | 92 | 1007.1 |
| 20260503080517 | 40 | 87 | 0.0 | 0.0 | 0.00 | 0.24 | 0.00 | 91 | 1008.1 |
| 20260503072505 | 40 | 87 | 0.0 | 0.0 | 0.00 | 0.24 | 0.00 | 91 | 1008.2 |
| 20260503071929 | 40 | 87 | 0.0 | 0.0 | 0.00 | 0.24 | 0.00 | 91 | 1008.6 |
| 20260503070450 | 40 | 87 | 0.0 | 0.0 | 0.00 | 0.24 | 0.00 | 91 | 1008.6 |
| 20260503054439 | 41 | 87 | 0.0 | 0.0 | 0.00 | 0.24 | 0.00 | 90 | 1009.5 |
| 20260503053440 | 41 | 87 | 0.0 | 0.0 | 0.00 | 0.24 | 0.00 | 90 | 1009.5 |
| 20260503052437 | 41 | 87 | 0.0 | 0.0 | 0.00 | 0.24 | 0.00 | 91 | 1009.7 |
| 20260503051917 | 41 | 87 | 0.0 | 0.0 | 0.00 | 0.24 | 0.00 | 90 | 1009.8 |
| 20260503050437 | 42 | 87 | 0.0 | 0.0 | 0.00 | 0.24 | 0.00 | 90 | 1009.8 |
| 20260503045435 | 42 | 87 | 0.0 | 0.0 | 0.00 | 0.24 | 0.00 | 90 | 1009.9 |
| 20260503044435 | 42 | 87 | 0.0 | 0.0 | 0.00 | 0.24 | 0.00 | 90 | 1010.2 |
| 20260503043435 | 42 | 87 | 0.0 | 0.0 | 0.00 | 0.24 | 0.00 | 90 | 1010.2 |
| 20260503042436 | 42 | 87 | 0.0 | 0.0 | 0.00 | 0.24 | 0.00 | 90 | 1010.3 |
| 20260503041427 | 42 | 87 | 0.0 | 0.0 | 0.00 | 0.24 | 0.00 | 90 | 1010.3 |
| 20260503040425 | 43 | 87 | 0.0 | 0.0 | 0.00 | 0.24 | 0.00 | 90 | 1010.3 |
| 20260503035425 | 43 | 87 | 0.0 | 0.0 | 0.00 | 0.24 | 0.24 | 90 | 1010.3 |
| 20260503034426 | 43 | 87 | 0.0 | 0.0 | 0.00 | 0.24 | 0.24 | 90 | 1010.5 |
| 20260503033425 | 43 | 87 | 0.0 | 0.0 | 0.00 | 0.24 | 0.24 | 90 | 1010.5 |
| 20260503032426 | 43 | 87 | 0.0 | 0.0 | 0.00 | 0.24 | 0.24 | 90 | 1010.6 |
| 20260503031421 | 44 | 87 | 0.0 | 0.0 | 0.00 | 0.24 | 0.24 | 90 | 1010.3 |
| 20260503030852 | 44 | 87 | 0.0 | 0.0 | 0.00 | 0.24 | 0.24 | 90 | 1010.3 |
| 20260503025421 | 44 | 87 | 0.0 | 0.0 | 0.00 | 0.24 | 0.24 | 90 | 1010.3 |
| 20260503025340 | 44 | 87 | 0.0 | 0.0 | 0.00 | 0.24 | 0.24 | 90 | 1010.3 |
| 20260503023421 | 45 | 87 | 0.0 | 0.0 | 0.00 | 0.24 | 0.24 | 90 | 1010.3 |
| 20260503022415 | 45 | 87 | 0.0 | 0.0 | 0.00 | 0.24 | 0.24 | 90 | 1010.5 |
| 20260503021415 | 45 | 87 | 0.0 | 0.0 | 0.00 | 0.24 | 0.24 | 90 | 1010.6 |
| 20260503020902 | 46 | 87 | 0.0 | 0.0 | 0.00 | 0.24 | 0.24 | 90 | 1010.6 |
| 20260503015411 | 46 | 87 | 0.0 | 0.0 | 0.01 | 0.24 | 0.24 | 90 | 1010.7 |
| 20260503014409 | 46 | 87 | 0.0 | 0.0 | 0.01 | 0.24 | 0.24 | 90 | 1010.7 |
| 20260503013846 | 47 | 87 | 0.0 | 0.0 | 0.01 | 0.24 | 0.24 | 90 | 1010.7 |
| 20260503012409 | 47 | 87 | 0.0 | 0.0 | 0.01 | 0.24 | 0.24 | 90 | 1010.6 |
| 20260503011408 | 47 | 87 | 0.0 | 0.0 | 0.01 | 0.24 | 0.24 | 90 | 1010.5 |
| 20260503010409 | 47 | 87 | 0.0 | 0.0 | 0.01 | 0.24 | 0.24 | 90 | 1010.5 |
| 20260503005410 | 47 | 87 | 0.0 | 0.0 | 0.00 | 0.23 | 0.24 | 90 | 1010.5 |
| 20260503004409 | 47 | 87 | 0.0 | 0.0 | 0.00 | 0.23 | 0.23 | 90 | 1010.5 |
| 20260503003355 | 48 | 87 | 0.0 | 0.0 | 0.00 | 0.23 | 0.23 | 90 | 1010.5 |
| 20260503002836 | 48 | 87 | 0.0 | 3.0 | 0.00 | 0.23 | 0.23 | 90 | 1010.3 |
| 20260503001354 | 49 | 119 | 0.0 | 0.0 | 0.00 | 0.23 | 0.23 | 90 | 1010.2 |
| 20260503000833 | 49 | 115 | 0.0 | 0.0 | 0.00 | 0.23 | 0.23 | 90 | 1010.2 |
| 20260502235354 | 49 | 161 | 0.0 | 0.0 | 0.00 | 0.23 | 0.23 | 90 | 1010.2 |
| 20260502234840 | 49 | 161 | 0.0 | 0.0 | 0.00 | 0.23 | 0.23 | 90 | 1010.2 |
| 20260502233348 | 49 | 161 | 0.0 | 0.0 | 0.00 | 0.23 | 0.23 | 90 | 1010.2 |
| 20260502232348 | 49 | 161 | 0.0 | 0.0 | 0.00 | 0.23 | 0.23 | 90 | 1010.0 |
| 20260502231348 | 50 | 161 | 0.0 | 0.0 | 0.00 | 0.23 | 0.23 | 90 | 1009.8 |
| 20260502230833 | 50 | 161 | 0.0 | 0.0 | 0.00 | 0.23 | 0.23 | 90 | 1009.8 |